Weather in Novoselovka

Ukraine / Odesa District     46°00′31″N   29°36′54″E
temp.,
°C
wind,
m/s
gust,
m/s
humid.,
%
clouds,
%
prec.,
mm/h
press.,
hPa
HPBL,
m
24 may, tue
tue2400:00+11n33815 0.0 101242
03:00+10n22860 0.0 101211
06:00+10nne22840 0.0 101325
09:00+16nne22590 0.0 1014687
12:00+19ne11449 0.0 10141792
15:00+20sse3240100 0.0 10141670
18:00+17s5655100 0.0 1014438
21:00+15se366795 0.0 1015192
25 may, wed
wed2500:00+12ssw338051 0.0 101750
03:00+12ssw238195 0.0 101730
06:00+12sse228045 0.0 101819
09:00+18sse355460 0.0 1019565
12:00+22sse55395 0.0 10191616
15:00+23sse773818 0.0 10181815
18:00+20sse894066 0.0 1018932
21:00+15sse6116310 0.0 1019296
26 may, thu
thu2600:00+15s5116767 0.1 1019422
03:00+13s51283100 1.1 1018371
06:00+13s5128715 0.6 1017365
09:00+18sw5764100 0.9 1017710
12:00+23wnw455767 0.2 10171246
15:00+24nw675487 0.3 10171571
18:00+23nnw564836 0.0 10181057
21:00+19w226259 0.0 101811
27 may, fri
fri2700:00+18nw1163100 0.0 102012
03:00+18w2258100 0.0 101921
06:00+18w226496 0.0 101931
09:00+21wsw335798 0.0 1019384
12:00+25wsw244481 0.0 10181843
15:00+22s6858100 0.0 1017446
18:00+23s78540 0.0 1015644
21:00+20s611690 0.0 1014299
28 may, sat
sat2800:00+17ssw614765 0.0 1014326
03:00+16ssw49852 0.0 1012177
06:00+18wnw257256 0.0 1012115
09:00+22n33585 0.0 1013637
12:00+25wnw134651 0.0 10121438
15:00+28wnw2436100 0.0 10112683
18:00+22nnw4461100 0.5 1011345
21:00+14ne61091100 7.4 1014308